SCP
0 0 0 0 0 0 0 0 0 0 0 0 0 0 0 0 0 0 0 0 0 0 0 0 0 0 0 0 0 0 0 0 0 0 0 0 0 0
0 0 0 0 0 0 0 0 0 0 0 0 0 0 0 0 0 0 0 0 0 0 0 0 0 0 0 0 0 0 0 0 0 0 0 0 0 0
0 0 0 0 0 0 0 0 0 0 0 0 0 0 0 0 0 0 0 0 0 0 0 0 0 0 0 0 0 0 0 0 0 0 0 0 0 0
0 0 0 0 0 0 0 0 0 0 0 0 0 0 0 0 0 0 0 0 0 0 0 0 0 0 0 0 0 0 0 0 0 0 0 0 0 0
0 0 0 0 0 0 0 0 0 0 0 0 0 0 0 0 0 0 0 0 0 0 0 0 0 0 0 0 0 0 0 0 0 0 0 0 0 0
0 0 0 0 0 0 0 0 0 0 0 0 0 0 0 0 0 0 0 0 0 0 0 0 0 0 0 0 0 0 0 0 0 0 0 0 0 0
0 0 0 0 0 0 0 0 0 0 0 0 0 0 0 0 0 0 0 0 0 0 0 0 0 0 0 0 0 0 0 0 0 0 0 0 0 0
0 0 0 0 0 0 0 0 0 0 0 0 0 0 0 0 0 0 0 0 0 0 0 0 0 0 0 0 0 0 0 0 0 0 0 0 0 0
0 0 0 0 0 0 0 0 0 0 0 0 0 0 0 0 0 0 0 0 0 0 0 0 0 0 0 0 0 0 0 0 0 0 0 0 0 0
0 0 0 0 0 0 0 0 0 0 0 0 0 0 0 0 0 0 0 0 0 0 0 0 0 0 0 0 0 0 0 0 0 0 0 0 0 0
0 0 0 0 0 0 0 0 0 0 0 0 0 0 0 0 0 0 0 0 0 0 0 0 0 0 0 0 0 0 0 0 0 0 0 0 0 0
0 0 0 0 0 0 0 0 0 0 0 0 0 0 0 0 0 0 0 0 0 0 0 0 0 0 0 0 0 0 0 0 0 0 0 0 0 0
0 0 0 0 0 0 0 0 0 0 0 0 0 0 0 0 0 0 0 0 0 0 0 0 0 0 0 0 0 0 0 0 0 0 0 0 0 0
0 0 0 0 0 0 0 0 0 0 0 0 0 0 0 0 0 0 0 0 0 0 0 0 0 0 0 0 0 0 0 0 0 0 0 0 0 0
0 0 0 0 0 0 0 0 0 0 0 0 0 0 0 0 0 0 0 0 0 0 0 0 0 0 0 0 0 0 0 0 0 0 0 0 0 0
0 0 0 0 0 0 0 0 0 0 0 0 0 0 0 0 0 0 0 -0 -0 0 0 0 0 0 0 0 0 0 0 0 0 0 0 0 0 0
0 0 0 0 0 0 0 0 0 0 0 0 0 0 0 0 0 0 0 0 0 0 0 0 0 0 0 0 0 0 0 0 0 0 0 0 0 0
0 0 0 0 0 0 0 0 0 0 0 0 0 0 0 0 0 0 0 0 0 0 0 0 0 0 0 0 0 0 0 0 0 0 0 0 0 0
0 0 0 0 0 0 0 0 0 0 0 0 0 0 0 0 0 0 0 0 0 0 0 0 0 0 0 0 0 0 0 0 0 0 0 0 0 0
0 0 0 0 0 0 0 0 0 0 0 0 0 0 0 0 0 0 0 0 0 0 0 0 0 0 0 0 0 0 0 0 0 0 0 0 0 0
0 0 0 0 0 0 0 0 0 0 0 0 0 0 0 0 0 0 0 0 0 0 0 0 0 0 0 0 0 0 0 0 0 0 0 0 0 0
0 0 0 0 0 0 0 0 0 0 0 0 0 0 0 0 0 0 0 0 0 0 0 0 0 0 0 0 0 0 0 0 0 0 0 0 0 0
0 0 0 0 0 0 0 0 0 0 0 0 0 0 0 0 0 0 0 0 0 0 0 0 0 0 0 0 0 0 0 0 0 0 0 0 0 0
Wind_Speed
6 6 5 4 4 4 4 4 3 2 2 2 1 1 2 3 6 5 6 11 13 12 12 12 12 11 11 11 11 11 11 11 10 9 8 6 3 3
5 6 5 4 4 3 4 4 5 4 3 2 1 2 4 5 8 6 8 14 14 13 13 13 13 13 13 13 12 12 12 12 12 12 12 12 11 9
6 6 7 5 4 3 3 3 4 4 5 2 1 4 6 8 8 7 7 7 8 14 14 14 14 14 13 13 13 13 13 13 13 14 14 14 14 14
8 7 7 5 5 4 3 4 4 5 4 4 3 4 6 9 9 8 7 7 7 13 15 15 14 14 14 14 14 13 13 13 14 15 15 15 16 16
8 8 8 7 6 4 4 4 4 4 4 5 4 4 5 8 10 8 9 7 8 10 13 14 14 15 14 14 14 14 13 13 14 14 15 15 16 17
7 7 8 8 8 6 5 5 4 4 5 6 7 7 6 8 8 9 8 6 6 7 9 10 13 15 15 15 15 15 14 13 14 14 14 14 15 16
6 6 7 9 10 8 5 5 5 4 6 7 8 7 8 9 8 6 9 8 6 4 6 5 5 6 7 11 13 14 13 13 13 14 14 14 14 15
6 5 6 8 10 10 10 9 8 8 8 8 7 10 10 10 8 9 10 9 5 2 4 4 3 5 4 4 8 11 11 11 12 12 13 13 13 14
7 5 5 7 8 5 6 6 6 10 11 9 10 11 11 12 12 11 8 6 6 6 5 4 3 3 3 4 8 9 10 10 10 11 11 11 12 12
7 7 7 7 8 8 5 4 3 4 7 7 9 9 11 11 10 10 10 8 7 5 3 4 2 2 2 2 4 7 8 9 9 9 10 10 10 11
7 7 7 8 11 11 8 7 5 4 7 11 12 14 16 15 12 10 9 10 9 4 2 4 3 3 2 1 1 3 5 6 7 8 8 9 8 7
5 5 9 10 13 14 10 9 9 8 9 11 12 14 13 13 13 9 10 11 9 5 3 4 4 4 3 0 1 0 1 1 2 3 5 7 7 4
5 4 5 11 14 15 11 8 11 11 10 11 10 9 8 7 7 6 7 10 9 4 7 5 4 3 4 3 1 2 2 0 1 1 1 4 6 4
5 4 4 10 13 15 10 11 15 12 9 9 8 7 7 6 5 5 6 5 5 6 10 7 5 5 5 4 2 2 1 1 2 1 1 2 3 5
4 5 5 10 12 11 12 17 15 9 9 9 8 6 4 5 6 6 6 6 6 4 6 6 7 5 4 5 4 3 2 1 2 2 2 2 3 3
4 4 5 9 9 10 12 12 8 8 10 9 7 5 5 5 5 6 6 6 6 4 4 3 7 9 5 4 5 4 3 3 2 2 2 1 1 3
5 3 3 5 6 7 8 8 7 8 8 6 8 7 6 6 5 4 4 4 5 4 3 3 4 5 6 6 5 4 3 2 2 2 2 1 1 3
6 4 5 6 7 9 10 8 7 8 8 8 8 7 7 7 5 3 4 5 6 5 4 3 5 5 5 5 3 5 3 3 2 2 2 3 1 2
5 5 5 6 7 8 9 8 7 8 8 9 9 8 7 6 6 5 5 5 5 4 3 3 4 5 5 3 2 1 5 3 3 2 2 3 3 4
3 4 5 6 6 7 8 7 8 8 8 8 8 7 7 6 6 6 5 5 4 4 3 2 3 5 6 6 4 3 4 5 4 3 2 2 2 2
4 3 4 5 5 6 7 8 9 9 8 8 7 7 7 6 6 6 6 7 5 4 4 4 4 5 4 4 3 1 3 6 7 5 4 3 1 1
4 3 3 4 5 6 7 8 8 8 9 7 7 7 6 6 7 7 7 6 5 5 5 3 3 3 3 4 4 4 3 3 5 8 7 8 6 6
3 2 3 4 5 5 7 9 10 8 8 7 7 6 6 6 6 6 7 7 6 5 4 4 3 2 3 3 4 3 4 3 2 3 6 12 16 15
Wind_Direction
225 225 223 229 222 217 208 197 208 247 269 241 179 115 111 104 110 104 108 110 107 103 101 99 96 92 87 83 79 77 75 73 72 70 70 73 95 183
222 225 229 227 227 222 213 206 203 209 226 222 177 137 133 119 112 108 107 106 102 102 100 98 96 93 88 85 81 79 79 79 78 75 73 70 69 72
227 223 228 220 220 224 217 212 211 205 220 205 157 138 133 128 117 109 104 99 101 101 100 98 94 91 87 84 80 78 77 78 79 77 75 73 72 72
226 221 226 220 220 219 217 222 221 209 199 185 159 150 140 137 128 118 108 102 99 101 99 98 95 92 89 86 82 78 76 77 78 78 77 76 75 73
226 218 218 212 221 220 219 228 229 217 192 168 158 145 135 136 127 113 107 103 99 100 96 94 95 94 92 90 88 84 80 78 77 77 76 76 76 76
237 222 212 205 212 215 220 226 223 208 182 166 158 150 141 136 131 128 120 110 104 99 94 95 96 93 93 94 94 91 86 82 79 77 76 74 75 75
251 231 215 208 208 207 212 216 208 197 178 167 159 150 148 149 142 138 129 116 91 100 105 91 87 80 77 89 94 96 92 89 86 84 81 78 76 75
252 240 223 209 208 212 219 218 207 194 182 168 162 160 154 147 138 142 138 134 119 139 110 94 85 86 75 80 101 103 100 98 95 92 89 85 82 79
244 225 221 207 193 196 204 208 208 200 182 166 162 159 154 151 146 145 145 131 124 151 124 100 79 78 68 87 105 107 107 107 107 106 102 95 89 86
242 226 214 198 193 183 172 165 161 164 166 159 153 148 146 147 146 142 136 113 105 128 119 109 103 87 68 51 90 108 112 112 114 119 123 116 103 93
246 233 213 198 193 178 163 157 143 129 125 130 131 132 136 138 138 134 135 135 138 146 131 113 126 101 77 53 20 107 110 109 112 124 135 138 124 99
242 232 218 203 185 177 168 163 155 146 134 125 122 125 133 141 147 151 150 149 144 146 171 124 140 129 119 202 200 104 65 64 86 112 136 146 140 106
231 221 212 201 186 181 174 168 159 146 136 131 128 127 128 135 145 150 155 157 154 155 162 137 142 143 136 150 187 204 185 183 35 4 169 171 166 148
223 214 207 194 186 180 173 154 146 139 133 131 130 131 133 135 137 139 144 145 151 156 159 147 140 157 135 132 167 180 186 203 186 206 193 153 162 170
215 209 203 189 180 177 167 153 151 145 141 138 138 134 130 130 121 110 106 105 90 105 147 153 144 142 138 143 152 150 153 195 186 181 175 165 167 153
206 198 185 180 180 168 160 158 155 150 147 141 135 128 119 117 124 126 124 118 100 67 45 105 147 142 133 133 137 146 154 168 182 185 159 154 178 181
166 160 155 166 178 165 160 157 144 139 134 130 135 133 130 126 124 123 121 112 117 126 101 55 65 88 116 133 130 142 146 161 182 167 132 113 228 201
158 166 171 175 178 168 160 153 144 143 142 140 141 141 140 138 130 120 117 125 130 131 129 128 113 89 59 27 96 141 145 167 179 163 139 131 219 244
167 171 170 173 171 164 158 150 144 145 144 146 147 146 143 139 134 132 127 125 130 134 137 135 127 121 126 146 289 174 154 162 156 159 173 169 198 231
166 165 163 161 159 157 152 144 140 143 145 146 147 147 145 142 142 143 144 144 142 135 134 139 148 148 157 169 184 215 187 161 162 178 199 205 243 279
150 145 145 145 148 150 147 144 145 147 149 148 150 151 150 143 147 155 158 158 144 142 159 185 198 159 117 102 114 221 238 207 180 174 173 168 214 270
144 139 138 142 148 149 145 144 144 147 149 148 152 154 153 151 153 158 163 163 164 164 172 170 129 121 122 147 177 203 231 241 227 217 204 184 177 197
143 143 153 158 152 146 145 146 147 150 153 153 154 155 153 151 152 155 162 163 159 158 148 147 146 145 160 165 176 196 219 225 218 226 248 236 227 232